Flag for U.S.A. Weather past 2 weeks in Rockford, Illinois, U.S.A.

Now
43 °F

Clear.


Feels Like: 43 °F
Forecast: 34 / 65 °F
Wind: No wind

Location: Greater Rockford Airport

Current Time: Apr 28, 2015 at 2:10:16 AM

Latest Report: Apr 28, 2015 at 12:54 AM


Visibility: 10 mi

Pressure: 30.16 "Hg

Humidity: 71%

Dew point: 34 °F

Location of RockfordLocation

Historic Weather in Rockford — Graph

°F

Rockford temperature yesterday

Maximum temperature yesterday: 65 °F (at 3:54 PM)
Minimum temperature yesterday: 36 °F (at 4:54 AM)
Average temperature yesterday: 51 °F

Past Weeks' High & Low Weather Summary

 TemperatureHumidityPressure
High79 °F (Apr 17, 1:54 PM)92% (Apr 20, 4:54 AM)30.30 "Hg (Apr 20, 4:54 AM)
Low29 °F (Apr 24, 5:54 AM)15% (Apr 14, 3:54 PM)29.26 "Hg (Apr 20, 4:54 AM)
Average52 °F51%29.96 "Hg
* Reported Apr 13 12:54 AM — Apr 28 12:54 AM, Rockford, Weather by CustomWeather, © 2015

Note: Actual official high and low records may vary slightly from our data, if they occured in-between our weather recording intervals... More about our weather records

Advertising

Rockford weather history for previous 24 hours

 ConditionsComfort  
Time TempWeatherWind HumidityBarometerVisibility
12:54 AM
Tue, Apr 28
43 °FClear.No wind71%30.16 "Hg10 mi
11:54 PM
Mon, Apr 27
45 °FClear.No wind65%30.15 "Hg10 mi
10:54 PM46 °FClear.3 mph66%30.14 "Hg10 mi
9:54 PM49 °FClear.7 mph61%30.15 "Hg10 mi
8:54 PM52 °FClear.6 mph55%30.13 "Hg10 mi
7:54 PM56 °FPassing clouds.12 mph47%30.11 "Hg10 mi
6:54 PM62 °FScattered clouds.9 mph32%30.11 "Hg10 mi
5:54 PM64 °FScattered clouds.14 mph28%30.11 "Hg10 mi
4:54 PM65 °FPassing clouds.13 mph29%30.11 "Hg10 mi
3:54 PM65 °FPassing clouds.17 mph29%30.11 "Hg10 mi
2:54 PM64 °FPassing clouds.12 mph32%30.13 "Hg10 mi
1:54 PM62 °FPassing clouds.6 mph34%30.14 "Hg10 mi
12:54 PM61 °FPassing clouds.14 mph34%30.15 "Hg10 mi
11:54 AM59 °FPassing clouds.16 mph36%30.16 "Hg10 mi
10:54 AM56 °FSunny.14 mph42%30.17 "Hg10 mi
9:54 AM53 °FSunny.9 mph48%30.19 "Hg10 mi
8:54 AM49 °FSunny.8 mph52%30.19 "Hg10 mi
7:54 AM45 °FSunny.6 mph60%30.17 "Hg10 mi
6:54 AM38 °FClear.3 mph73%30.15 "Hg10 mi
5:54 AM36 °FClear.3 mph73%30.11 "Hg10 mi
4:54 AM36 °FClear.6 mph73%30.11 "Hg10 mi
3:54 AM37 °FClear.No wind70%30.11 "Hg10 mi
2:54 AM38 °FClear.7 mph68%30.12 "Hg10 mi
Weather by CustomWeather, © 2015

See weather overviewHow to use our weather pages